[[{"header":{"parameterUnit":"m.s-1","parameterCategory":1,"la1":30.2991,"la2":30.254,"lo1":-89.0895,"lo2":-89.0444,"dy":0.0017,"dx":0.0017,"nx":28,"ny":28,"refTime":"2026-01-01T09:00:00:Z","depth":0,"parameterNumber":2,"parameterNumberName":"U-component_of_WINDS"},"data":[0,0,0,0,0,0,0,0,0,0,0,0,0,0,0,0,0,0,0,0,0,0,0,0,0,0,0,0,0,0,0,0,0,0,0,0,0,0,0,0,0,0,0,0,0,0,0,0,0,0,0,0,0,0,0,0,0,0,1.7667,1.7667,0,1.7675,1.7675,1.7676,1.7632,1.763,1.7629,1.7628,1.7636,1.7637,1.7639,0,0,0,0,0,0,0,0,0,0,0,0,0,1.7613,1.7614,1.7667,1.7667,1.7667,1.7675,1.7675,1.7676,1.7632,1.763,1.7629,1.7627,1.7636,1.7637,1.7639,0,0,0,0,0,0,0,0,0,0,0,0,0,1.763,1.7614,1.7667,1.7647,1.7645,1.7675,1.7676,1.7676,1.7632,1.763,1.7629,1.7627,1.7635,1.7637,1.7639,1.769,0,0,1.7646,1.7646,0,0,0,0,0,0,0,0,1.7629,1.7632,1.7649,1.7648,1.7646,1.7651,1.7659,1.768,1.7633,1.7637,1.7628,1.7626,1.7642,1.7644,1.7649,1.769,1.7691,1.7646,1.7647,1.7648,1.7648,0,0,0,0,0,0,0,1.7628,1.7632,1.767,1.765,1.7648,1.7637,1.7637,1.7663,1.765,1.7637,1.7633,1.7635,1.7641,1.7648,1.7649,1.7691,1.7646,1.7648,1.7649,1.765,1.7773,1.7775,0,0,0,0,0,0,1.763,1.7631,1.767,1.7671,1.7633,1.7639,1.764,1.7651,1.765,1.7648,1.7637,1.7633,1.7645,1.7647,1.7649,1.7709,1.7648,1.765,1.7651,1.7771,1.7773,1.7776,0,0,0,0,0,0,1.7629,1.7634,1.767,1.765,1.7654,1.7642,1.7655,1.7652,1.7659,1.765,1.7647,1.7646,1.7644,1.7647,1.768,1.7708,1.7651,1.7653,1.7769,1.7772,1.7775,1.7827,0,0,0,0,0,0,1.7627,1.7634,1.7653,1.7651,1.7655,1.7701,1.7657,1.7654,1.7662,1.7658,1.7658,1.7656,1.7642,1.7677,1.7682,1.771,1.7654,1.7766,1.777,1.7774,1.7823,1.7832,1.7839,0,0,0,0,0,1.7626,1.7667,1.7654,1.7659,1.7679,1.7702,1.7705,1.7688,1.7665,1.7684,1.7678,1.7656,1.7704,1.7681,1.7686,1.7715,1.7764,1.7769,1.7773,1.7819,1.783,1.7839,0,0,0,0,0,0,1.7673,1.7667,1.7652,1.7694,1.7699,1.7695,1.7719,1.77,1.7712,1.7707,1.7686,1.7687,1.7724,1.7723,1.7697,1.7764,1.773,1.7736,1.7763,1.7773,1.7781,1.7781,1.7656,0,0,0,0,0,1.7688,1.7708,1.7701,1.7739,1.7743,1.773,1.774,1.7727,1.7731,1.7733,1.773,1.7735,1.7751,1.7762,1.7776,1.7823,1.7822,1.7845,1.7853,1.786,1.7865,1.7889,1.79,1.7791,1.7791,1.7791,0,0,1.772,1.7719,1.7733,1.7749,1.7751,1.7772,1.7732,1.7756,1.7771,1.7736,1.7768,1.7766,1.777,1.781,1.7827,1.781,1.7895,1.7866,1.7871,1.7873,1.7895,1.7906,1.7915,1.7794,1.7793,1.7793,0,0,1.7789,1.779,1.7822,1.7825,1.7829,1.7821,1.7829,1.7827,1.7824,1.7856,1.783,1.7848,1.7876,1.788,1.7886,1.7956,1.7936,1.7961,1.8004,1.8028,1.8036,1.8044,1.8069,1.8078,1.7967,1.7967,1.7967,0,1.7828,1.7858,1.7841,1.7866,1.7874,1.7844,1.7875,1.7879,1.7888,1.7894,1.7874,1.791,1.791,1.7951,1.7968,1.7973,1.7981,1.7961,1.8037,1.8044,1.8051,1.8074,1.8084,1.797,1.7969,1.7969,1.7969,0,1.7906,1.7928,1.7953,1.7962,1.7973,1.8001,1.7987,1.8,1.7986,1.798,1.8012,1.8012,1.8026,1.8034,1.8021,1.8073,1.8062,1.804,1.8006,1.8064,1.8086,1.8095,1.7974,1.7973,1.7972,1.7971,0,0,1.8005,1.8004,1.8014,1.8017,1.802,1.8036,1.8063,1.8077,1.8088,1.8095,1.8117,1.8142,1.8122,1.8128,1.8115,1.8136,1.8192,1.8111,1.8111,1.8126,1.8249,1.8266,1.8277,1.8178,1.818,1.8181,1.8249,0,1.8072,1.8119,1.8103,1.815,1.817,1.8142,1.8165,1.8169,1.8164,1.818,1.8173,1.8192,1.8163,1.8167,1.8186,1.8181,1.8216,1.8176,1.8199,1.82,1.8199,1.8288,1.8306,1.8369,1.8257,1.8259,1.826,0,1.8156,1.8167,1.8216,1.8216,1.8223,1.8245,1.8256,1.8272,1.8275,1.827,1.8278,1.826,1.8286,1.8252,1.8288,1.8261,1.8269,1.8268,1.827,1.8271,1.8233,1.8292,1.8389,1.8399,1.8273,1.8272,1.8271,0,1.8223,1.825,1.8283,1.8287,1.8287,1.8303,1.8303,1.8305,1.8315,1.8325,1.833,1.8343,1.835,1.836,1.8347,1.8323,1.8385,1.8349,1.8381,1.8381,1.8395,1.8395,1.8496,1.8401,1.8401,1.84,1.84,0,1.83,1.8331,1.8313,1.8333,1.8367,1.8349,1.8384,1.8381,1.8383,1.8402,1.8378,1.8397,1.8377,1.8394,1.8383,1.8415,1.8418,1.8414,1.8411,1.8417,1.8417,1.8422,1.8417,1.8403,1.8402,1.8402,1.8402,0,1.838,1.8369,1.8403,1.8401,1.8401,1.8426,1.8423,1.8442,1.8435,1.8459,1.8464,1.8453,1.8472,1.8459,1.8477,1.847,1.8511,1.8502,1.851,1.8508,1.854,1.8537,1.8648,1.8661,1.8558,1.8559,1.856,0,1.843,1.8453,1.8453,1.8464,1.8467,1.8485,1.8494,1.8478,1.8488,1.8495,1.8513,1.8529,1.8541,1.8572,1.8565,1.8579,1.857,1.8607,1.8572,1.8576,1.857,1.8569,1.8571,1.8615,1.8616,1.8617,1.8618,0,1.8518,1.8512,1.8527,1.854,1.8552,1.8562,1.8569,1.858,1.8563,1.8576,1.8595,1.8604,1.8623,1.8639,1.8651,1.8651,1.8632,1.8629,1.8637,1.8643,1.8647,1.8645,1.853,1.8627,1.8626,1.8625,1.8625,1.8624,1.8585,1.8604,1.8607,1.8625,1.8629,1.8636,1.8654,1.8649,1.8665,1.8679,1.8668,1.869,1.8693,1.8707,1.871,1.8726,1.8711,1.8723,1.8726,1.8729,1.8734,1.8644,1.8728,1.8728,1.8728,1.8728,1.8728,0,1.8672,1.8673,1.8689,1.8701,1.8714,1.8695,1.8703,1.8715,1.8735,1.874,1.8753,1.8774,1.879,1.8785,1.8799,1.8814,1.8805,1.8818,1.8817,1.8817,1.8746,1.8738,1.8825,1.8825,1.8825,1.8825,1.8825,1.8825,1.8719,1.8751,1.8746,1.878,1.878,1.8802,1.8808,1.8815,1.8818,1.8844,1.8857,1.8854,1.8855,1.8869,1.8883,1.8881,1.8887,1.8903,1.8898,1.8832,1.8822,1.8813,1.8805,1.8905,1.8905,1.8967,1.8968,1.8968]},{"header":{"parameterUnit":"m.s-1","parameterCategory":1,"la1":30.2991,"la2":30.254,"lo1":-89.0895,"lo2":-89.0444,"dy":0.0017,"dx":0.0017,"nx":28,"ny":28,"refTime":"2026-01-01T09:00:00:Z","depth":0,"parameterNumber":3,"parameterNumberName":"V-component_of_WINDS"},"data":[0,0,0,0,0,0,0,0,0,0,0,0,0,0,0,0,0,0,0,0,0,0,0,0,0,0,0,0,0,0,0,0,0,0,0,0,0,0,0,0,0,0,0,0,0,0,0,0,0,0,0,0,0,0,0,0,0,0,6.985,6.9851,0,6.9962,6.9963,6.9964,6.9939,6.9937,6.9935,6.9933,7.0043,7.0048,7.0053,0,0,0,0,0,0,0,0,0,0,0,0,0,6.9609,6.9613,6.9849,6.9851,6.9852,6.9962,6.9963,6.9965,6.994,6.9937,6.9935,6.9932,7.0042,7.0047,7.0053,0,0,0,0,0,0,0,0,0,0,0,0,0,6.9716,6.9615,6.9849,6.9853,6.9855,6.9961,6.9963,6.9965,6.994,6.9937,6.9934,6.9931,7.004,7.0047,7.0054,7.0162,0,0,7.0076,7.008,0,0,0,0,0,0,0,0,6.971,6.9725,6.9851,6.9853,6.9855,6.9934,6.9918,7.0031,6.9941,6.9908,6.9933,6.993,7.0009,7.0019,7.0046,7.0167,7.0172,7.0077,7.0081,7.0085,7.0087,0,0,0,0,0,0,0,6.9703,6.972,6.9894,6.9853,6.9855,6.9848,6.986,6.994,6.9974,6.991,6.9909,6.9923,7.0009,7.0039,7.0049,7.0174,7.0077,7.0083,7.0088,7.0091,7.0388,7.0392,0,0,0,0,0,0,6.9694,6.9714,6.989,6.9897,6.9773,6.9855,6.9868,6.9911,6.9974,6.998,6.9925,6.9921,7.0028,7.004,7.0053,7.0184,7.0085,7.0091,7.0096,7.0385,7.0389,7.0393,0,0,0,0,0,0,6.9689,6.971,6.9886,6.9805,6.9827,6.9862,6.9911,6.9915,6.9945,6.9985,6.999,6.995,7.0026,7.0042,7.0135,7.0187,7.0095,7.0101,7.0381,7.0386,7.0391,7.0446,0,0,0,0,0,0,6.9682,6.9709,6.9751,6.9806,6.9831,6.9968,6.9914,6.992,6.9959,6.9954,7.001,7.0016,7.0025,7.0125,7.0143,7.0195,7.0107,7.0376,7.0383,7.0389,7.044,7.0453,7.0464,0,0,0,0,0,6.9674,6.9761,6.9754,6.9775,6.9886,6.9972,6.9986,6.9996,6.9963,7.0005,7.0031,7.0014,7.0178,7.0134,7.0154,7.021,7.0373,7.0381,7.0389,7.0435,7.045,7.0463,0,0,0,0,0,0,6.9709,6.9769,6.9761,6.9869,6.9916,6.9967,7.0021,7.0012,7.0068,7.0062,7.0071,7.0083,7.0178,7.0203,7.0153,7.0318,7.0271,7.0283,7.0298,7.0314,7.0325,7.0318,7.0113,0,0,0,0,0,6.973,6.9797,6.9844,6.9934,6.9958,6.9986,7.0024,7.0028,7.0076,7.0095,7.0127,7.0173,7.0235,7.0275,7.0334,7.0443,7.0454,7.0491,7.0503,7.0512,7.0523,7.0582,7.0599,7.0419,7.0419,7.0419,0,0,6.9773,6.9814,6.9855,6.9943,6.9979,7.0047,7.0003,7.0075,7.0125,7.0105,7.0196,7.0221,7.0272,7.0374,7.042,7.0398,7.0575,7.0522,7.053,7.0535,7.0592,7.0609,7.0624,7.0424,7.0423,7.0422,0,0,6.9886,6.9924,7.0004,7.0042,7.0098,7.0116,7.0135,7.0188,7.0205,7.0296,7.0283,7.034,7.0447,7.0485,7.0518,7.0644,7.0631,7.0663,7.0725,7.0783,7.0797,7.081,7.0855,7.0871,7.0673,7.0673,7.0674,0,6.9932,7.0035,7.0045,7.012,7.0159,7.0146,7.0226,7.0262,7.0334,7.036,7.0334,7.0468,7.0501,7.0612,7.0643,7.067,7.0691,7.0657,7.0794,7.0807,7.0819,7.0862,7.088,7.0677,7.0677,7.0676,7.0676,0,7.0088,7.0159,7.0217,7.0289,7.0334,7.0411,7.0432,7.0476,7.0476,7.0496,7.0588,7.0628,7.0696,7.0722,7.0722,7.0832,7.0816,7.0792,7.0745,7.084,7.0881,7.0897,7.0682,7.0681,7.068,7.0679,0,0,7.0228,7.0305,7.0326,7.0359,7.042,7.0475,7.055,7.0618,7.0655,7.0705,7.0768,7.0858,7.0837,7.0874,7.0878,7.0928,7.1027,7.0898,7.0899,7.0921,7.115,7.1169,7.1188,7.1018,7.1021,7.1023,7.1146,0,7.0347,7.0483,7.0494,7.0616,7.0681,7.0669,7.0735,7.0779,7.0799,7.0856,7.0877,7.0942,7.0908,7.0931,7.098,7.1004,7.1073,7.0995,7.1076,7.1078,7.1064,7.1209,7.1229,7.1343,7.1162,7.1165,7.1167,0,7.0504,7.0561,7.069,7.0742,7.077,7.0829,7.0892,7.0947,7.0995,7.1006,7.1049,7.1045,7.1121,7.1071,7.1176,7.1123,7.1156,7.1173,7.1177,7.1186,7.1129,7.1222,7.138,7.1397,7.1192,7.119,7.1188,0,7.0594,7.0702,7.0793,7.0821,7.0885,7.0927,7.0954,7.1,7.104,7.1094,7.1119,7.1181,7.1214,7.1261,7.1274,7.1236,7.1378,7.1329,7.1389,7.1389,7.142,7.1418,7.1586,7.144,7.144,7.1439,7.1439,0,7.0726,7.0806,7.0835,7.0891,7.0979,7.099,7.1076,7.1101,7.1142,7.1202,7.1194,7.125,7.1263,7.1321,7.1331,7.1416,7.1431,7.1441,7.1443,7.1443,7.1441,7.1465,7.1458,7.1444,7.1443,7.1442,7.1441,0,7.0842,7.0865,7.0963,7.1015,7.103,7.1093,7.1136,7.119,7.1208,7.1284,7.1302,7.1331,7.1399,7.1416,7.1496,7.1503,7.1604,7.1597,7.1588,7.1588,7.1647,7.1642,7.1837,7.1863,7.17,7.1701,7.1702,0,7.0926,7.0987,7.1046,7.1086,7.1117,7.1181,7.1222,7.1235,7.1278,7.1338,7.1384,7.145,7.1505,7.1613,7.164,7.1701,7.1697,7.1761,7.1706,7.1703,7.1699,7.1695,7.1701,7.1772,7.1773,7.1775,7.1776,0,7.1072,7.108,7.1141,7.1205,7.1255,7.1305,7.1354,7.1387,7.1406,7.1454,7.1524,7.1567,7.1649,7.1715,7.1777,7.1803,7.1793,7.1793,7.181,7.1811,7.1803,7.1809,7.1617,7.1789,7.1787,7.1786,7.1786,7.1785,7.1175,7.1229,7.1279,7.1346,7.1384,7.143,7.1483,7.1509,7.1568,7.1638,7.1641,7.1717,7.1763,7.1845,7.1875,7.1933,7.1914,7.1939,7.1945,7.1951,7.1957,7.1793,7.1944,7.1944,7.1944,7.1943,7.1943,0,7.1321,7.1353,7.1415,7.1484,7.1537,7.1524,7.1577,7.1621,7.1689,7.1734,7.1788,7.1868,7.1932,7.1964,7.2027,7.2068,7.2065,7.2084,7.2082,7.2088,7.197,7.195,7.2086,7.2086,7.2086,7.2086,7.2086,7.2085,7.1404,7.1494,7.1508,7.1617,7.1648,7.1724,7.1755,7.1797,7.1833,7.1923,7.1977,7.1999,7.2038,7.2104,7.2162,7.2169,7.2193,7.2215,7.2221,7.211,7.2096,7.2082,7.2063,7.222,7.222,7.2333,7.2334,7.2335]}]]